Location: Unspecified
(0.0000°N, 0.0000°E)
Time: 17:12:03
(UTC+00:00)

deb Explorer IX - Visible Passes

Search period start: 26 May 2022 00:00
Search period end: 05 June 2022 00:00
Orbit: 535 x 1070 km, 38.8° (Epoch: 25 May)

Date Brightness Start Highest point End Pass type
(mag) Time Alt. Az. Time Alt. Az. Time Alt. Az.
26 May ? 19:23:02 10° NW 19:27:14 76° NE 19:27:39 67° E visible
27 May ? 18:54:00 10° NW 18:58:17 67° NE 19:00:28 26° ESE visible
28 May ? 18:24:55 10° NW 18:29:19 60° NE 18:33:18 10° ESE visible
28 May ? 20:14:10 10° WSW 20:14:13 10° WSW 20:14:13 10° WSW visible
29 May ? 05:14:39 10° SSW 05:20:05 29° SE 05:25:59 10° E visible
29 May ? 19:44:31 10° WSW 19:46:27 13° SW 19:47:01 13° SSW visible
30 May ? 04:45:44 10° SSW 04:50:51 27° SE 04:56:25 10° E visible
30 May ? 19:14:58 10° WSW 19:17:23 15° SW 19:19:44 10° S visible
31 May ? 04:18:14 15° S 04:21:36 24° SE 04:26:47 10° E visible
31 May ? 18:45:26 10° W 18:48:19 17° SW 18:51:03 10° S visible
01 Jun ? 03:50:59 20° SSE 03:52:21 21° SE 03:57:06 10° E visible
02 Jun ? 03:23:42 18° SE 03:23:42 18° SE 03:27:20 10° E visible
02 Jun ? 05:04:36 16° SW 05:09:38 75° NW 05:16:29 10° NE visible
03 Jun ? 02:56:23 13° ESE 02:56:23 13° ESE 02:57:30 10° E visible
03 Jun ? 04:37:17 31° SW 04:40:18 81° NW 04:47:02 10° NE visible
04 Jun ? 04:09:55 63° SW 04:10:59 88° NW 04:17:33 10° NE visible
